| time (UTC) | temp F | wind direction | speed MPH | gust MPH | rain 1hr in | rain 24hr in | rain mn in | humidity % | barometer mb |
| 20260906055104 | 63 | 0.0 | 0.0 | 0.00 | 0.00 | 0.00 | 43 | 887.5 | |
| 20260906055051 | 63 | 0.0 | 0.0 | 0.00 | 0.00 | 0.00 | 42 | 887.6 | |
| 20260906051603 | 63 | 0.0 | 0.0 | 0.00 | 0.00 | 0.00 | 42 | 887.6 | |
| 20260906051552 | 62 | 0.0 | 0.0 | 0.00 | 0.00 | 0.00 | 43 | 887.3 | |
| 20260906044103 | 62 | 0.0 | 0.0 | 0.00 | 0.00 | 0.00 | 43 | 887.3 | |
| 20260906044050 | 62 | 0.0 | 0.0 | 0.00 | 0.00 | 0.00 | 42 | 887.0 | |
| 20260906040504 | 62 | 0.0 | 0.0 | 0.00 | 0.00 | 0.00 | 42 | 887.0 | |
| 20260906040450 | 63 | 0.0 | 0.0 | 0.00 | 0.00 | 0.00 | 42 | 886.4 | |
| 20260906033536 | 63 | 0.0 | 0.0 | 0.00 | 0.00 | 0.00 | 42 | 886.4 | |
| 20260906032902 | 63 | 0.0 | 0.0 | 0.00 | 0.00 | 0.00 | 42 | 886.4 | |
| 20260906032849 | 64 | 0.0 | 0.0 | 0.00 | 0.00 | 0.00 | 42 | 886.3 | |
| 20260906025502 | 64 | 0.0 | 0.0 | 0.00 | 0.00 | 0.00 | 42 | 886.3 | |
| 20260906025448 | 65 | 0.0 | 0.0 | 0.00 | 0.00 | 0.00 | 42 | 885.9 | |
| 20260906022101 | 65 | 0.0 | 0.0 | 0.00 | 0.00 | 0.00 | 42 | 885.9 | |
| 20260906022047 | 65 | 0.0 | 0.0 | 0.00 | 0.00 | 0.00 | 42 | 886.0 | |
| 20260906014901 | 65 | 0.0 | 0.0 | 0.00 | 0.00 | 0.00 | 42 | 886.0 | |
| 20260906014846 | 65 | 0.0 | 0.0 | 0.00 | 0.00 | 0.00 | 42 | 885.9 | |
| 20260906011500 | 65 | 0.0 | 0.0 | 0.00 | 0.00 | 0.00 | 42 | 885.9 | |
| 20260906011446 | 65 | 0.0 | 0.0 | 0.00 | 0.00 | 0.00 | 41 | 885.8 | |
| 20260906004000 | 65 | 0.0 | 0.0 | 0.00 | 0.00 | 0.00 | 41 | 885.8 | |
| 20260906003945 | 66 | 0.0 | 0.0 | 0.00 | 0.00 | 0.00 | 41 | 885.7 | |
| 20260906000601 | 66 | 0.0 | 0.0 | 0.00 | 0.00 | 0.00 | 41 | 885.7 | |
| 20260906000544 | 66 | 0.0 | 0.0 | 0.00 | 0.00 | 0.00 | 42 | 885.9 | |
| 20260905233159 | 66 | 0.0 | 0.0 | 0.00 | 0.00 | 0.00 | 42 | 885.9 | |
| 20260905233143 | 67 | 0.0 | 0.0 | 0.00 | 0.00 | 0.00 | 42 | 885.8 | |
| 20260905225859 | 67 | 0.0 | 0.0 | 0.00 | 0.00 | 0.00 | 42 | 885.8 | |
| 20260905225842 | 69 | 0.0 | 0.0 | 0.00 | 0.00 | 0.00 | 42 | 885.8 | |
| 20260905222458 | 69 | 0.0 | 0.0 | 0.00 | 0.00 | 0.00 | 42 | 885.8 | |
| 20260905222443 | 72 | 0.0 | 0.0 | 0.00 | 0.00 | 0.00 | 41 | 885.4 | |
| 20260905215058 | 72 | 0.0 | 0.0 | 0.00 | 0.00 | 0.00 | 41 | 885.4 | |
| 20260905215041 | 73 | 0.0 | 0.0 | 0.00 | 0.00 | 0.00 | 41 | 885.2 | |
| 20260905211659 | 73 | 0.0 | 0.0 | 0.00 | 0.00 | 0.00 | 41 | 885.2 | |
| 20260905211641 | 73 | 0.0 | 0.0 | 0.00 | 0.00 | 0.00 | 41 | 885.1 | |
| 20260905204359 | 73 | 0.0 | 0.0 | 0.00 | 0.00 | 0.00 | 41 | 885.1 | |
| 20260905204340 | 74 | 0.0 | 0.0 | 0.00 | 0.00 | 0.00 | 41 | 884.9 | |
| 20260905201056 | 74 | 0.0 | 0.0 | 0.00 | 0.00 | 0.00 | 41 | 884.9 | |
| 20260905201039 | 74 | 0.0 | 0.0 | 0.00 | 0.00 | 0.00 | 41 | 885.0 | |
| 20260905193856 | 74 | 0.0 | 0.0 | 0.00 | 0.00 | 0.00 | 41 | 885.0 | |
| 20260905193839 | 74 | 0.0 | 0.0 | 0.00 | 0.00 | 0.00 | 41 | 884.8 | |
| 20260905190556 | 74 | 0.0 | 0.0 | 0.00 | 0.00 | 0.00 | 41 | 884.8 | |
| 20260905190538 | 74 | 0.0 | 0.0 | 0.00 | 0.00 | 0.00 | 41 | 884.8 | |
| 20260905183155 | 74 | 0.0 | 0.0 | 0.00 | 0.00 | 0.00 | 41 | 884.8 | |
| 20260905183138 | 73 | 0.0 | 0.0 | 0.00 | 0.00 | 0.00 | 42 | 884.5 | |
| 20260905175755 | 73 | 0.0 | 0.0 | 0.00 | 0.00 | 0.00 | 42 | 884.5 | |
| 20260905175737 | 74 | 0.0 | 0.0 | 0.00 | 0.00 | 0.00 | 43 | 884.3 | |
| 20260905172354 | 74 | 0.0 | 0.0 | 0.00 | 0.00 | 0.00 | 43 | 884.3 | |
| 20260905172337 | 80 | 0.0 | 0.0 | 0.00 | 0.00 | 0.00 | 42 | 884.2 | |
| 20260905165054 | 80 | 0.0 | 0.0 | 0.00 | 0.00 | 0.00 | 42 | 884.2 | |
| 20260905165036 | 86 | 0.0 | 0.0 | 0.00 | 0.00 | 0.00 | 41 | 884.0 | |
| 20260905161754 | 86 | 0.0 | 0.0 | 0.00 | 0.00 | 0.00 | 41 | 884.0 | |
| 20260905161736 | 92 | 0.0 | 0.0 | 0.00 | 0.00 | 0.00 | 39 | 884.1 | |
| 20260905154253 | 92 | 0.0 | 0.0 | 0.00 | 0.00 | 0.00 | 39 | 884.1 | |
| 20260905154235 | 91 | 0.0 | 0.0 | 0.00 | 0.00 | 0.00 | 39 | 884.2 | |
| 20260905150854 | 91 | 0.0 | 0.0 | 0.00 | 0.00 | 0.00 | 39 | 884.2 | |
| 20260905150835 | 93 | 0.0 | 0.0 | 0.00 | 0.00 | 0.00 | 40 | 884.1 | |
| 20260905143552 | 93 | 0.0 | 0.0 | 0.00 | 0.00 | 0.00 | 40 | 884.1 | |
| 20260905143535 | 94 | 0.0 | 0.0 | 0.00 | 0.00 | 0.00 | 39 | 884.1 | |
| 20260905140352 | 94 | 0.0 | 0.0 | 0.00 | 0.00 | 0.00 | 39 | 884.1 | |
| 20260905140333 | 96 | 0.0 | 0.0 | 0.00 | 0.00 | 0.00 | 40 | 884.4 | |
| 20260905140155 | 96 | 0.0 | 0.0 | 0.00 | 0.00 | 0.00 | 40 | 884.4 | |
| 20260905133352 | 96 | 0.0 | 0.0 | 0.00 | 0.00 | 0.00 | 40 | 884.4 | |
| 20260905133331 | 99 | 0.0 | 0.0 | 0.00 | 0.00 | 0.00 | 40 | 884.4 | |
| 20260905130151 | 99 | 0.0 | 0.0 | 0.00 | 0.00 | 0.00 | 40 | 884.4 | |
| 20260905130031 | 99 | 0.0 | 0.0 | 0.00 | 0.00 | 0.00 | 40 | 884.7 | |
| 20260905122849 | 99 | 0.0 | 0.0 | 0.00 | 0.00 | 0.00 | 40 | 884.7 | |
| 20260905122729 | 100 | 0.0 | 0.0 | 0.00 | 0.00 | 0.00 | 40 | 884.9 | |
| 20260905115550 | 100 | 0.0 | 0.0 | 0.00 | 0.00 | 0.00 | 40 | 884.9 | |
| 20260905115428 | 98 | 0.0 | 0.0 | 0.00 | 0.00 | 0.00 | 41 | 884.9 | |
| 20260905112149 | 98 | 0.0 | 0.0 | 0.00 | 0.00 | 0.00 | 41 | 884.9 | |
| 20260905112128 | 91 | 0.0 | 0.0 | 0.00 | 0.00 | 0.00 | 43 | 885.0 | |
| 20260905104748 | 91 | 0.0 | 0.0 | 0.00 | 0.00 | 0.00 | 43 | 885.0 | |
| 20260905104727 | 89 | 0.0 | 0.0 | 0.00 | 0.00 | 0.00 | 41 | 885.0 | |
| 20260905101248 | 89 | 0.0 | 0.0 | 0.00 | 0.00 | 0.00 | 41 | 885.0 | |
| 20260905101226 | 83 | 0.0 | 0.0 | 0.00 | 0.00 | 0.00 | 40 | 885.0 | |
| 20260905093647 | 83 | 0.0 | 0.0 | 0.00 | 0.00 | 0.00 | 40 | 885.0 | |
| 20260905093625 | 73 | 0.0 | 0.0 | 0.00 | 0.00 | 0.00 | 44 | 885.2 | |
| 20260905090147 | 73 | 0.0 | 0.0 | 0.00 | 0.00 | 0.00 | 44 | 885.2 | |
| 20260905090125 | 72 | 0.0 | 0.0 | 0.00 | 0.00 | 0.00 | 44 | 885.1 | |
| 20260905082646 | 72 | 0.0 | 0.0 | 0.00 | 0.00 | 0.00 | 44 | 885.1 | |
| 20260905082624 | 72 | 0.0 | 0.0 | 0.00 | 0.00 | 0.00 | 45 | 885.1 | |
| 20260905075246 | 72 | 0.0 | 0.0 | 0.00 | 0.00 | 0.00 | 45 | 885.1 | |
| 20260905075224 | 71 | 0.0 | 0.0 | 0.00 | 0.00 | 0.00 | 46 | 885.0 | |
| 20260905071746 | 71 | 0.0 | 0.0 | 0.00 | 0.00 | 0.00 | 46 | 885.0 | |
| 20260905071723 | 71 | 0.0 | 0.0 | 0.00 | 0.00 | 0.00 | 46 | 884.9 | |
| 20260905064245 | 71 | 0.0 | 0.0 | 0.00 | 0.00 | 0.00 | 46 | 884.9 | |
| 20260905064222 | 71 | 0.0 | 0.0 | 0.00 | 0.00 | 0.00 | 45 | 884.8 | |
| 20260905060644 | 71 | 0.0 | 0.0 | 0.00 | 0.00 | 0.00 | 45 | 884.8 | |
| 20260905060621 | 69 | 0.0 | 0.0 | 0.00 | 0.00 | 0.00 | 45 | 884.8 |